Location: Eaton
(41.3139°N, 82.0207°W)
Time: 02:11:54
(UTC+00:00)

COBE Rocket - Pass Details

Date: 17 June 2021
Orbit: 679 x 782 km, 97.1° (Epoch: 02 August)

Event Time Altitude Azimuth Distance (km) Brightness Sun altitude
Exits shadow 04:50:14 74° 168° (SSE) 794 3.8 -24.7°
Maximum altitude 04:50:43 90° 267° (W) 765 3.9 -24.7°
Drops below altitude 10° 04:55:44 10° 348° (NNW) 2,266 7.5 -24.8°
Sets 04:58:01 0° 349° (N) 3,178 8.6 -24.9°
